EN

Hourly Weather Alta Vista

Today, 18 January, Monday

Time Temperature Precipitation Wind Pressure Humidity
00:00 -7°C° 0.1 mm 2 mps 711 mmHg 96%
01:00 -9°C° 0.1 mm 3 mps 711 mmHg 96%
02:00 -11°C° 0.1 mm 4 mps 712 mmHg 95%
03:00 -12°C° 0 mm 4 mps 713 mmHg 95%
04:00 -15°C° 0 mm 4 mps 713 mmHg 95%
05:00 -17°C° 0 mm 4 mps 714 mmHg 95%
06:00 -16°C° 0 mm 3 mps 715 mmHg 95%
07:00 -17°C° 0 mm 3 mps 715 mmHg 95%
08:00 -17°C° 0 mm 3 mps 716 mmHg 95%
09:00 -16°C° 0 mm 2 mps 716 mmHg 95%
10:00 -15°C° 0 mm 2 mps 716 mmHg 94%
11:00 -15°C° 0 mm 2 mps 716 mmHg 94%
12:00 -13°C° 0 mm 2 mps 716 mmHg 94%
13:00 -13°C° 0 mm 3 mps 715 mmHg 94%
14:00 -10°C° 0 mm 3 mps 715 mmHg 94%
15:00 -10°C° 0.3 mm 4 mps 715 mmHg 94%
16:00 -8°C° 0.3 mm 4 mps 715 mmHg 94%
17:00 -7°C° 0.3 mm 5 mps 715 mmHg 93%
18:00 -7°C° 0.1 mm 5 mps 715 mmHg 93%
19:00 -7°C° 0.1 mm 5 mps 716 mmHg 92%
20:00 -8°C° 0.1 mm 6 mps 716 mmHg 91%
21:00 -8°C° 0 mm 5 mps 717 mmHg 92%
22:00 -10°C° 0 mm 5 mps 717 mmHg 92%
23:00 -10°C° 0 mm 5 mps 717 mmHg 93%

Tomorrow, 19 January, Tuesday

Time Temperature Precipitation Wind Pressure Humidity
00:00 -10°C° 0 mm 4 mps 718 mmHg 93%
01:00 -11°C° 0 mm 4 mps 718 mmHg 93%
02:00 -12°C° 0 mm 4 mps 718 mmHg 93%
03:00 -14°C° 0 mm 4 mps 718 mmHg 94%
04:00 -14°C° 0 mm 3 mps 718 mmHg 95%
05:00 -14°C° 0 mm 2 mps 719 mmHg 96%
06:00 -15°C° 0 mm 2 mps 718 mmHg 96%
07:00 -13°C° 0 mm 1 mps 718 mmHg 96%
08:00 -14°C° 0 mm 1 mps 718 mmHg 96%
09:00 -12°C° 0 mm 1 mps 718 mmHg 96%
10:00 -13°C° 0 mm 2 mps 717 mmHg 96%
11:00 -12°C° 0 mm 3 mps 717 mmHg 95%
12:00 -10°C° 0 mm 3 mps 716 mmHg 94%
13:00 -10°C° 0 mm 3 mps 715 mmHg 93%
14:00 -10°C° 0 mm 4 mps 713 mmHg 92%
15:00 -10°C° 0 mm 4 mps 712 mmHg 90%
16:00 -10°C° 0 mm 4 mps 710 mmHg 88%
17:00 -9°C° 0 mm 4 mps 709 mmHg 87%
18:00 -8°C° 0 mm 5 mps 708 mmHg 84%
19:00 -6°C° 0 mm 5 mps 706 mmHg 82%
20:00 -5°C° 0 mm 5 mps 705 mmHg 80%
21:00 -5°C° 0 mm 5 mps 704 mmHg 82%
22:00 -4°C° 0 mm 4 mps 703 mmHg 85%
23:00 -4°C° 0 mm 3 mps 702 mmHg 87%

Day after tomorrow, 20 January, Wednesday

Time Temperature Precipitation Wind Pressure Humidity
00:00 -5°C° 0.4 mm 5 mps 702 mmHg 87%
01:00 -4°C° 0.4 mm 6 mps 702 mmHg 86%
02:00 -4°C° 0.4 mm 8 mps 702 mmHg 86%
03:00 -5°C° 0 mm 8 mps 702 mmHg 81%
04:00 -6°C° 0 mm 7 mps 703 mmHg 77%
05:00 -7°C° 0 mm 7 mps 703 mmHg 73%
06:00 -7°C° 0 mm 8 mps 703 mmHg 73%
07:00 -7°C° 0 mm 8 mps 703 mmHg 73%
08:00 -7°C° 0 mm 8 mps 703 mmHg 74%
09:00 -8°C° 0 mm 9 mps 703 mmHg 74%
10:00 -8°C° 0 mm 9 mps 703 mmHg 75%
11:00 -8°C° 0 mm 9 mps 703 mmHg 75%
12:00 -8°C° 0 mm 9 mps 703 mmHg 77%
13:00 -8°C° 0 mm 9 mps 703 mmHg 79%
14:00 -8°C° 0 mm 9 mps 703 mmHg 81%
15:00 -7°C° 0 mm 8 mps 703 mmHg 82%
16:00 -7°C° 0 mm 8 mps 703 mmHg 82%
17:00 -8°C° 0 mm 8 mps 704 mmHg 83%
18:00 -8°C° 0 mm 8 mps 704 mmHg 84%
19:00 -8°C° 0 mm 8 mps 704 mmHg 86%
20:00 -9°C° 0 mm 9 mps 705 mmHg 87%
21:00 -10°C° 0.2 mm 8 mps 706 mmHg 86%
22:00 -12°C° 0.2 mm 8 mps 707 mmHg 86%
23:00 -15°C° 0.2 mm 8 mps 708 mmHg 85%

21 January, Thursday

Time Temperature Precipitation Wind Pressure Humidity
00:00 -16°C° 0 mm 8 mps 709 mmHg 86%
01:00 -17°C° 0 mm 7 mps 710 mmHg 87%
02:00 -19°C° 0 mm 7 mps 711 mmHg 88%
03:00 -18°C° 0 mm 6 mps 712 mmHg 89%
04:00 -20°C° 0 mm 6 mps 713 mmHg 90%
05:00 -19°C° 0 mm 5 mps 714 mmHg 91%
06:00 -19°C° 0 mm 4 mps 715 mmHg 92%
07:00 -20°C° 0 mm 4 mps 716 mmHg 93%
08:00 -21°C° 0 mm 3 mps 716 mmHg 95%
09:00 -19°C° 0 mm 3 mps 717 mmHg 94%
10:00 -19°C° 0 mm 3 mps 717 mmHg 93%
11:00 -18°C° 0 mm 3 mps 718 mmHg 92%
12:00 -18°C° 0.1 mm 3 mps 718 mmHg 91%
13:00 -18°C° 0.1 mm 3 mps 718 mmHg 91%
14:00 -17°C° 0.1 mm 3 mps 718 mmHg 91%
15:00 -18°C° 0 mm 3 mps 718 mmHg 92%
16:00 -17°C° 0 mm 2 mps 718 mmHg 94%
17:00 -18°C° 0 mm 2 mps 718 mmHg 95%
18:00 -19°C° 0 mm 2 mps 718 mmHg 96%
19:00 -20°C° 0 mm 2 mps 718 mmHg 97%
20:00 -21°C° 0 mm 2 mps 718 mmHg 97%
21:00 -21°C° 0 mm 2 mps 719 mmHg 97%
22:00 -23°C° 0 mm 2 mps 719 mmHg 97%
23:00 -23°C° 0 mm 2 mps 719 mmHg 97%

22 January, Friday

Time Temperature Precipitation Wind Pressure Humidity
00:00 -24°C° 0 mm 2 mps 719 mmHg 97%
01:00 -25°C° 0 mm 3 mps 718 mmHg 97%
02:00 -25°C° 0 mm 3 mps 718 mmHg 96%
03:00 -26°C° 0 mm 3 mps 718 mmHg 96%
04:00 -26°C° 0 mm 3 mps 717 mmHg 96%
05:00 -26°C° 0 mm 3 mps 717 mmHg 95%
06:00 -26°C° 0 mm 3 mps 717 mmHg 95%
07:00 -25°C° 0 mm 3 mps 717 mmHg 96%
08:00 -25°C° 0 mm 3 mps 717 mmHg 96%
09:00 -24°C° 0 mm 3 mps 717 mmHg 95%
10:00 -23°C° 0 mm 3 mps 717 mmHg 94%
11:00 -23°C° 0 mm 4 mps 717 mmHg 93%
12:00 -22°C° 0 mm 4 mps 717 mmHg 93%
13:00 -21°C° 0 mm 3 mps 716 mmHg 93%
14:00 -21°C° 0 mm 3 mps 716 mmHg 92%
15:00 -22°C° 0 mm 3 mps 717 mmHg 94%
16:00 -23°C° 0 mm 3 mps 717 mmHg 95%
17:00 -24°C° 0 mm 3 mps 717 mmHg 96%
18:00 -25°C° 0 mm 3 mps 718 mmHg 97%
19:00 -26°C° 0 mm 3 mps 718 mmHg 97%
20:00 -26°C° 0 mm 2 mps 718 mmHg 98%
21:00 -27°C° 0 mm 2 mps 718 mmHg 96%
22:00 -28°C° 0 mm 2 mps 719 mmHg 95%
23:00 -27°C° 0 mm 1 mps 719 mmHg 93%

23 January, Saturday

Time Temperature Precipitation Wind Pressure Humidity
00:00 -27°C° 0 mm 1 mps 719 mmHg 92%
01:00 -27°C° 0 mm 0 mps 719 mmHg 92%
02:00 -28°C° 0 mm 0 mps 719 mmHg 91%
03:00 -28°C° 0 mm 0 mps 719 mmHg 91%
04:00 -28°C° 0 mm 0 mps 718 mmHg 90%
05:00 -27°C° 0 mm 0 mps 718 mmHg 90%
06:00 -28°C° 0 mm 1 mps 718 mmHg 90%
07:00 -28°C° 0 mm 1 mps 718 mmHg 90%
08:00 -30°C° 0 mm 2 mps 718 mmHg 90%
09:00 -28°C° 0 mm 2 mps 718 mmHg 91%
10:00 -29°C° 0 mm 3 mps 717 mmHg 92%
11:00 -26°C° 0 mm 3 mps 717 mmHg 92%
12:00 -25°C° 0.1 mm 3 mps 717 mmHg 93%
13:00 -25°C° 0.1 mm 4 mps 716 mmHg 95%
14:00 -24°C° 0.1 mm 4 mps 715 mmHg 96%
15:00 -24°C° 0.1 mm 4 mps 715 mmHg 96%
16:00 -23°C° 0.1 mm 4 mps 715 mmHg 95%
17:00 -23°C° 0.1 mm 4 mps 715 mmHg 95%
18:00 -22°C° 0 mm 4 mps 715 mmHg 94%
19:00 -22°C° 0 mm 5 mps 715 mmHg 94%
20:00 -21°C° 0 mm 5 mps 715 mmHg 93%
21:00 -21°C° 0.2 mm 5 mps 714 mmHg 94%
22:00 -19°C° 0.2 mm 4 mps 714 mmHg 95%
23:00 -18°C° 0.2 mm 4 mps 714 mmHg 95%
Show more